Location: Bergnershof
(48.9468°N, 10.9431°E)
Time: 07:22:06
(UTC+00:00)

USA 281 - Visible Passes

Search period start: 21 June 2021 00:00
Search period end: 01 July 2021 00:00
Orbit: 1078 x 1081 km, 106.0° (Epoch: 18 June)

Date Brightness Start Highest point End Pass type
(mag) Time Alt. Az. Time Alt. Az. Time Alt. Az.
21 Jun 3.9 01:21:53 10° SE 01:28:17 59° ENE 01:34:44 10° NNW visible
21 Jun 6.1 22:54:29 10° NE 22:56:25 11° NNE 22:58:20 10° N visible
22 Jun 5.0 00:33:28 10° ESE 00:39:05 31° NE 00:44:44 10° NNW visible
22 Jun 3.2 02:16:36 10° SSE 02:23:08 72° WSW 02:29:45 10° NNW visible
22 Jun 5.8 23:46:01 10° ENE 23:50:14 18° NE 23:54:29 10° N visible
23 Jun 3.9 01:27:10 10° SE 01:33:35 59° NE 01:40:02 10° NNW visible
23 Jun 6.1 22:59:45 10° NE 23:01:43 11° NNE 23:03:40 10° N visible
24 Jun 5.0 00:38:45 10° ESE 00:44:23 32° NE 00:50:02 10° NNW visible
24 Jun 3.2 02:21:54 10° SSE 02:28:27 71° WSW 02:35:03 10° NNW visible
24 Jun 5.8 23:51:18 10° ENE 23:55:32 19° NE 23:59:47 10° N visible
25 Jun 3.9 01:32:27 10° SE 01:38:53 59° ENE 01:45:20 10° NNW visible
25 Jun 6.1 23:05:01 10° NE 23:07:00 11° NNE 23:08:59 10° N visible
26 Jun 5.0 00:44:02 10° ESE 00:49:41 32° NE 00:55:21 10° NNW visible
26 Jun 3.2 02:27:12 10° SSE 02:33:45 71° WSW 02:40:21 10° NNW visible
26 Jun 5.8 23:56:34 10° ENE 00:00:49 19° NE 00:05:06 10° N visible
27 Jun 3.9 01:37:46 10° SE 01:44:11 60° ENE 01:50:39 10° NNW visible
27 Jun 6.1 23:10:16 10° NE 23:12:18 12° NNE 23:14:18 10° N visible
28 Jun 5.0 00:49:19 10° ESE 00:54:59 32° NE 01:00:39 10° NNW visible
29 Jun 5.8 00:01:51 10° ENE 00:06:07 19° NE 00:10:24 10° N visible
29 Jun 3.9 01:43:04 10° SE 01:49:29 60° ENE 01:55:57 10° NNW visible
29 Jun 6.2 23:15:32 10° NE 23:17:35 12° NNE 23:19:37 10° N visible
30 Jun 5.0 00:54:37 10° ESE 01:00:16 32° NE 01:05:58 10° NNW visible
